Location: Newark
(17.9939°S, 31.0481°E)
Time: 08:31:01
(UTC+00:00)

Courier 1B Rocket - All Passes

Search period start: 19 November 2019 00:00
Search period end: 29 November 2019 00:00
Orbit: 920 x 1202 km, 28.2° (Epoch: 17 November)

Date Brightness Start Highest point End Pass type
(mag) Time Alt. Az. Time Alt. Az. Time Alt. Az.
19 Nov - 01:13:08 10° W 01:19:43 43° SSW 01:25:54 10° ESE visible
19 Nov - 03:08:11 10° WSW 03:14:03 33° S 03:19:41 10° ESE daylight
19 Nov - 05:02:06 10° WSW 05:08:15 48° SSE 05:14:16 10° E daylight
19 Nov - 06:55:35 10° WSW 07:01:47 66° NNW 07:08:05 10° NE daylight
19 Nov - 08:50:49 10° WNW 08:55:01 18° NNW 08:59:18 10° N daylight
19 Nov - 20:25:37 10° NNW 20:31:01 21° NNE 20:36:15 10° ENE night (unlit)
19 Nov - 22:17:12 10° NW 22:24:38 64° NNE 22:31:35 10° ESE visible
20 Nov - 00:11:23 10° W 00:18:25 54° SSW 00:24:59 10° ESE visible
20 Nov - 02:06:35 10° WSW 02:12:41 34° S 02:18:28 10° ESE visible
20 Nov - 04:00:59 10° WSW 04:07:03 40° SSE 04:12:54 10° E daylight
20 Nov - 05:54:28 10° WSW 06:00:48 88° SSE 06:07:06 10° ENE daylight
20 Nov - 07:48:48 10° W 07:54:02 28° NNW 07:59:23 10° NNE daylight
20 Nov - 19:26:18 10° N 19:29:45 13° NNE 19:33:08 10° ENE night (unlit)
20 Nov - 21:16:11 10° NW 21:23:25 45° NNE 21:30:17 10° E night (unlit)
20 Nov - 23:09:43 10° WNW 23:17:09 70° SSW 23:24:03 10° ESE visible
21 Nov - 01:04:49 10° WSW 01:11:18 37° S 01:17:22 10° ESE visible
21 Nov - 02:59:40 10° WSW 03:05:44 35° S 03:11:30 10° ESE daylight
21 Nov - 04:53:23 10° WSW 04:59:46 65° SSE 05:05:58 10° ENE daylight
21 Nov - 06:47:14 10° W 06:53:07 42° NNW 06:59:01 10° NE daylight
21 Nov - 08:45:35 10° NW 08:46:21 10° NNW 08:47:07 10° NNW daylight
21 Nov - 20:15:31 10° NNW 20:22:13 32° NNE 20:28:40 10° E night (unlit)
21 Nov - 22:08:13 10° WNW 22:15:53 88° NNE 22:23:03 10° ESE visible
22 Nov - 00:02:59 10° W 00:09:55 44° SSW 00:16:23 10° ESE visible
22 Nov - 01:58:10 10° WSW 02:04:22 34° S 02:10:12 10° ESE visible
22 Nov - 03:52:15 10° WSW 03:58:38 50° SSE 04:04:43 10° E daylight
22 Nov - 05:45:54 10° WSW 05:52:11 64° NNW 05:58:21 10° NE daylight
22 Nov - 07:41:25 10° WNW 07:45:20 17° NNW 07:49:18 10° N daylight
22 Nov - 19:15:17 10° NNW 19:20:58 22° NNE 19:26:33 10° ENE night (unlit)
22 Nov - 21:06:56 10° NW 21:14:37 66° NNE 21:21:55 10° ESE night (unlit)
22 Nov - 23:01:10 10° W 23:08:32 55° SSW 23:15:25 10° ESE visible
23 Nov - 00:56:28 10° WSW 01:02:56 35° S 01:09:00 10° ESE visible
23 Nov - 02:51:01 10° WSW 02:57:23 41° SSE 03:03:24 10° E daylight
23 Nov - 04:44:41 10° WSW 04:51:13 90° SSE 04:57:29 10° ENE daylight
23 Nov - 06:39:13 10° W 06:44:24 27° NNW 06:49:34 10° NNE daylight
23 Nov - 18:15:54 10° N 18:19:41 14° NNE 18:23:27 10° ENE visible
23 Nov - 20:05:56 10° NW 20:13:22 47° NNE 20:20:32 10° E night (unlit)
23 Nov - 21:59:28 10° WNW 22:07:10 70° SSW 22:14:25 10° ESE visible
23 Nov - 23:54:38 10° WSW 00:01:28 39° S 00:07:52 10° ESE visible
24 Nov - 01:49:36 10° WSW 01:56:02 37° S 02:02:03 10° ESE visible
24 Nov - 03:43:29 10° WSW 03:50:08 67° SSE 03:56:26 10° ENE daylight
24 Nov - 05:37:31 10° W 05:43:30 41° NNW 05:49:19 10° NE daylight
24 Nov - 19:05:16 10° NNW 19:12:06 33° NNE 19:18:50 10° E visible
24 Nov - 20:57:58 10° WNW 21:05:49 90° NNE 21:13:20 10° ESE night (unlit)
24 Nov - 22:52:46 10° W 23:00:00 45° SSW 23:06:48 10° ESE visible
25 Nov - 00:48:01 10° WSW 00:54:35 35° S 01:00:44 10° ESE visible
25 Nov - 02:42:15 10° WSW 02:48:57 52° SSE 02:55:13 10° E visible
25 Nov - 04:36:04 10° WSW 04:42:33 63° NNW 04:48:45 10° NE daylight
25 Nov - 06:31:50 10° WNW 06:35:40 17° NNW 06:39:28 10° N daylight
25 Nov - 18:05:04 10° NNW 18:10:51 23° NNE 18:16:39 10° E visible
25 Nov - 19:56:43 10° NW 20:04:30 68° NNE 20:12:06 10° ESE night (unlit)
25 Nov - 21:50:56 10° W 21:58:32 55° SSW 22:05:44 10° ESE visible
25 Nov - 23:46:15 10° WSW 23:53:04 36° S 23:59:28 10° ESE visible
26 Nov - 01:40:54 10° WSW 01:47:38 43° SSE 01:53:55 10° E visible
26 Nov - 03:34:44 10° WSW 03:41:33 89° NNW 03:47:56 10° ENE daylight
26 Nov - 05:29:28 10° W 05:34:45 27° NNW 05:39:53 10° NNE daylight
26 Nov - 17:05:44 10° N 17:09:36 14° NNE 17:13:30 10° ENE visible
26 Nov - 18:55:45 10° NW 19:03:13 48° NNE 19:10:38 10° E visible
26 Nov - 20:49:15 10° WNW 20:57:05 70° SSW 21:04:38 10° ESE night (unlit)
26 Nov - 22:44:24 10° WSW 22:51:31 40° S 22:58:16 10° ESE visible
27 Nov - 00:39:24 10° WSW 00:46:13 39° S 00:52:33 10° ESE visible
27 Nov - 02:33:26 10° WSW 02:40:26 69° SSE 02:46:55 10° ENE visible
27 Nov - 04:27:39 10° W 04:33:50 41° NNW 04:39:43 10° NE daylight
27 Nov - 17:55:08 10° NNW 18:01:57 34° NNE 18:08:51 10° E visible
27 Nov - 19:47:47 10° WNW 19:55:41 89° SSW 20:03:27 10° ESE visible
27 Nov - 21:42:32 10° W 21:49:58 46° SSW 21:57:05 10° ESE visible
27 Nov - 23:37:46 10° WSW 23:44:41 37° S 23:51:11 10° ESE visible
28 Nov - 01:32:06 10° WSW 01:39:11 54° SSE 01:45:44 10° E visible
28 Nov - 03:26:05 10° WSW 03:32:52 62° NNW 03:39:13 10° NE daylight
28 Nov - 05:22:04 10° WNW 05:25:59 17° NNW 05:29:49 10° N daylight
28 Nov - 16:55:01 10° NNW 17:00:45 23° NNE 17:06:35 10° E visible
28 Nov - 18:46:36 10° NW 18:54:20 69° NNE 19:02:08 10° ESE visible
28 Nov - 20:40:45 10° W 20:48:27 55° SSW 20:55:55 10° ESE visible
28 Nov - 22:36:01 10° WSW 22:43:06 38° S 22:49:50 10° ESE visible
